Date String (YYYY-MM-DD hh:mm:ss) UTC,Instrument flags,Ambient pressure (hPa),Sample flow (lpm),Bypass flow (lpm),Sample temperature (°C),Ambient temperature (°C),ASC tube jacket temperature (°C),LED temperature (°C),Box temperature (°C),Sample RH (%),Span deviation,Mass concentration (μg/m³),Mass concentration (μg/m³),Mass concentration (μg/m³)
DateTimeUTC,F1_M11,P_M11,Q1_M11,Q2_M11,T1_M11,T2_M11,T3_M11,T4_M11,T5_M11,U1_M11,ZSPAN_M11,X0_M11,X2_M11,X1_M11
2023-02-05 12:00:00,,0824.8,5.03,0.00,22.4,21.0,00.0,31.3,24.2,11.5,0000.0,0011.12,0007.02,0006.55
2023-02-05 12:01:00,,0824.8,4.98,0.00,22.4,21.0,00.0,31.3,24.2,11.5,0000.0,0010.97,0007.12,0006.63
2023-02-05 12:02:00,,0824.9,4.99,0.00,22.4,21.0,00.0,31.2,24.2,11.5,0000.0,0011.03,0007.16,0006.67
2023-02-05 12:03:00,,0824.9,5.02,0.00,22.4,21.0,00.0,31.2,24.1,11.5,0000.0,0011.14,0007.22,0006.69
2023-02-05 12:04:00,,0824.9,4.97,0.00,22.3,20.9,00.0,31.2,24.1,11.6,0000.0,0011.32,0007.25,0006.69
2023-02-05 12:05:00,,0824.9,5.03,0.00,22.3,20.8,00.0,31.2,24.1,11.7,0000.0,0011.37,0007.28,0006.70
2023-02-05 12:06:00,,0824.9,4.97,0.00,22.3,20.7,00.0,31.2,24.0,11.7,0000.0,0011.62,0007.35,0006.73
2023-02-05 12:07:00,,0824.9,5.04,0.00,22.3,20.7,00.0,31.2,24.0,11.7,0000.0,0011.66,0007.37,0006.74
2023-02-05 12:08:00,,0824.9,4.96,0.00,22.3,20.7,00.0,31.2,24.0,11.7,0000.0,0011.57,0007.33,0006.73
2023-02-05 12:09:00,,0824.9,5.04,0.00,22.3,20.8,00.0,31.2,24.1,11.7,0000.0,0011.45,0007.32,0006.73
2023-02-05 12:10:00,,0824.9,4.97,0.00,22.3,20.8,00.0,31.2,24.1,11.7,0000.0,0011.43,0007.32,0006.74
2023-02-05 12:11:00,,0824.9,5.03,0.00,22.3,20.9,00.0,31.2,24.1,11.7,0000.0,0011.67,0007.30,0006.72
2023-02-05 12:12:00,,0824.9,4.98,0.00,22.3,20.9,00.0,31.2,24.1,11.7,0000.0,0011.36,0007.27,0006.72
2023-02-05 12:13:00,,0824.9,5.00,0.00,22.3,20.9,00.0,31.2,24.1,11.7,0000.0,0011.73,0007.29,0006.72
2023-02-05 12:14:00,,0824.9,4.99,0.00,22.3,20.8,00.0,31.2,24.0,11.7,0000.0,0012.19,0007.29,0006.72
2023-02-05 12:15:00,,0825.0,5.01,0.00,22.2,20.7,00.0,31.2,24.0,11.8,0000.0,0012.41,0007.33,0006.75
2023-02-05 12:16:00,,0825.0,4.98,0.00,22.2,20.5,00.0,31.2,23.9,11.8,0000.0,0012.22,0007.33,0006.78
2023-02-05 12:17:00,,0824.9,5.01,0.00,22.2,20.4,00.0,31.1,23.9,11.8,0000.0,0012.27,0007.28,0006.79
2023-02-05 12:18:00,,0824.9,4.98,0.00,22.2,20.3,00.0,31.1,23.9,11.9,0000.0,0012.38,0007.30,0006.81
2023-02-05 12:19:00,,0824.8,5.03,0.00,22.1,20.3,00.0,31.1,23.9,12.0,0000.0,0012.68,0007.32,0006.83
2023-02-05 12:20:00,,0824.8,4.96,0.00,22.1,20.4,00.0,31.1,23.9,12.0,0000.0,0012.78,0007.33,0006.84
2023-02-05 12:21:00,,0824.7,5.03,0.00,22.1,20.5,00.0,31.1,23.9,12.0,0000.0,0013.01,0007.35,0006.85
2023-02-05 12:22:00,,0824.7,4.97,0.00,22.1,20.6,00.0,31.1,23.9,12.0,0000.0,0012.67,0007.38,0006.86
2023-02-05 12:23:00,,0824.7,5.02,0.00,22.1,20.6,00.0,31.0,24.0,11.9,0000.0,0012.75,0007.40,0006.88
2023-02-05 12:24:00,,0824.8,4.97,0.00,22.1,20.7,00.0,31.0,24.0,11.9,0000.0,0012.33,0007.38,0006.89
2023-02-05 12:25:00,,0824.9,5.03,0.00,22.1,20.7,00.0,31.0,23.9,11.9,0000.0,0012.01,0007.38,0006.90
2023-02-05 12:26:00,,0824.9,4.96,0.00,22.1,20.7,00.0,31.0,23.9,12.0,0000.0,0011.80,0007.34,0006.88
2023-02-05 12:27:00,,0824.9,5.03,0.00,22.1,20.4,00.0,31.0,23.8,12.0,0000.0,0011.82,0007.33,0006.86
2023-02-05 12:28:00,,0824.9,5.00,0.00,22.0,20.3,00.0,31.0,23.7,12.1,0000.0,0011.57,0007.37,0006.86
2023-02-05 12:29:00,,0824.8,5.00,0.00,22.0,20.8,00.0,30.9,23.9,12.0,0000.0,0011.49,0007.38,0006.86
2023-02-05 12:30:00,,0824.9,4.98,0.00,22.1,21.8,00.0,30.9,24.1,12.0,0000.0,0011.27,0007.38,0006.87
2023-02-05 12:31:00,,0824.9,5.04,0.00,22.2,22.5,00.0,30.9,24.3,11.9,0000.0,0011.43,0007.41,0006.87
2023-02-05 12:32:00,,0824.9,4.95,0.00,22.3,22.2,00.0,31.0,24.3,11.9,0000.0,0011.56,0007.38,0006.88
2023-02-05 12:33:00,,0825.0,5.04,0.00,22.3,21.8,00.0,31.0,24.2,11.9,0000.0,0011.84,0007.40,0006.93
2023-02-05 12:34:00,,0824.9,4.96,0.00,22.3,21.4,00.0,31.1,24.1,12.0,0000.0,0011.85,0007.45,0007.00
2023-02-05 12:35:00,,0824.9,5.04,0.00,22.3,21.1,00.0,31.1,24.0,12.0,0000.0,0011.89,0007.49,0007.05
2023-02-05 12:36:00,,0824.8,4.97,0.00,22.2,21.0,00.0,31.1,24.0,11.9,0000.0,0011.85,0007.52,0007.10
2023-02-05 12:37:00,,0824.7,4.99,0.00,22.3,21.0,00.0,31.1,24.1,11.8,0000.0,0011.62,0007.56,0007.14
2023-02-05 12:38:00,,0824.6,5.03,0.00,22.3,21.0,00.0,31.1,24.1,11.9,0000.0,0011.73,0007.57,0007.15
2023-02-05 12:39:00,,0824.8,4.97,0.00,22.3,21.0,00.0,31.1,24.1,11.8,0000.0,0011.99,0007.56,0007.17
2023-02-05 12:40:00,,0824.9,5.05,0.00,22.3,20.9,00.0,31.1,24.1,11.8,0000.0,0012.43,0007.55,0007.18
2023-02-05 12:41:00,,0824.9,4.96,0.00,22.2,20.8,00.0,31.1,24.0,11.9,0000.0,0012.62,0007.59,0007.22
2023-02-05 12:42:00,,0824.9,5.04,0.00,22.2,20.6,00.0,31.1,23.9,11.9,0000.0,0012.40,0007.61,0007.26
2023-02-05 12:43:00,,0824.9,4.96,0.00,22.2,20.6,00.0,31.1,23.9,11.9,0000.0,0012.09,0007.66,0007.28
2023-02-05 12:44:00,,0824.8,5.04,0.00,22.2,20.7,00.0,31.1,23.9,11.9,0000.0,0011.82,0007.65,0007.26
2023-02-05 12:45:00,,0824.8,4.97,0.00,22.2,20.7,00.0,31.1,24.0,11.9,0000.0,0011.76,0007.60,0007.21
2023-02-05 12:46:00,,0824.6,5.03,0.00,22.2,20.8,00.0,31.1,24.0,11.8,0000.0,0011.86,0007.61,0007.18
2023-02-05 12:47:00,,0824.7,4.97,0.00,22.2,20.8,00.0,31.1,24.0,11.9,0000.0,0011.88,0007.59,0007.14
2023-02-05 12:48:00,,0824.8,5.04,0.00,22.2,20.8,00.0,31.1,24.0,12.1,0000.0,0011.90,0007.57,0007.14
2023-02-05 12:49:00,,0824.6,4.96,0.00,22.2,20.8,00.0,31.1,24.0,12.1,0000.0,0011.85,0007.60,0007.16
2023-02-05 12:50:00,,0824.7,5.04,0.00,22.2,20.8,00.0,31.1,24.0,12.0,0000.0,0011.53,0007.60,0007.16
2023-02-05 12:51:00,,0824.8,4.96,0.00,22.2,20.7,00.0,31.1,24.0,12.0,0000.0,0011.10,0007.61,0007.17
2023-02-05 12:52:00,,0824.9,5.05,0.00,22.1,20.5,00.0,31.1,23.8,12.0,0000.0,0010.81,0007.59,0007.16
2023-02-05 12:53:00,,0824.8,4.98,0.00,22.1,20.4,00.0,31.0,23.8,12.1,0000.0,0010.86,0007.59,0007.15
2023-02-05 12:54:00,,0824.7,5.01,0.00,22.1,20.3,00.0,31.0,23.8,12.1,0000.0,0010.91,0007.60,0007.15
2023-02-05 12:55:00,,0824.7,5.02,0.00,22.1,20.4,00.0,31.0,23.8,12.0,0000.0,0011.03,0007.61,0007.14
2023-02-05 12:56:00,,0824.6,4.97,0.00,22.1,20.5,00.0,31.0,23.9,11.9,0000.0,0011.35,0007.60,0007.13
2023-02-05 12:57:00,,0824.6,5.04,0.00,22.1,20.5,00.0,31.0,23.9,11.9,0000.0,0011.74,0007.55,0007.12
2023-02-05 12:58:00,,0824.6,4.96,0.00,22.1,20.5,00.0,31.0,23.8,11.9,0000.0,0012.15,0007.52,0007.10
2023-02-05 12:59:00,,0824.7,5.03,0.00,22.0,20.4,00.0,31.0,23.8,12.0,0000.0,0011.97,0007.50,0007.10
